Location: City of Moscow
(46.7306°N, 116.9989°W)
Time: 02:56:45
(UTC+00:00)

Cosmos 1626 Rocket - Pass Details

Date: 23 March 2026
Orbit: 596 x 624 km, 82.5° (Epoch: 13 April)

Event Time Altitude Azimuth Distance (km) Brightness Sun altitude
Rises 09:53:59 0° 10° (N) 2,884 7.8 -35.5°
Reaches altitude 10° 09:58:09 10° 49° (NE) 1,963 6.9 -35.0°
Maximum altitude 09:59:10 11° 62° (ENE) 1,913 6.7 -34.9°
Drops below altitude 10° 10:00:11 10° 76° (ENE) 1,956 6.7 -34.8°
Enters shadow 10:02:27 - 102° (ESE) 2,340 6.8 -34.6°
